QPF
0.03 0.04 0.05 0.06 0.06 0.06 0.07 0.08 0.10 0.09 0.07 0.05 0.06 0.06 0.07 0.07 0.07 0.06 0.05 0.05 0.06 0.06 0.07 0.07 0.06 0.05 0.03 0.02 0.02 0.02 0.03 0.03 0.03 0.03 0.04 0.05 0.06 0.07
0.04 0.05 0.05 0.04 0.05 0.06 0.06 0.07 0.08 0.09 0.08 0.06 0.05 0.05 0.05 0.06 0.06 0.06 0.05 0.06 0.06 0.06 0.06 0.06 0.06 0.06 0.05 0.03 0.03 0.02 0.02 0.03 0.03 0.03 0.03 0.05 0.06 0.07
0.05 0.06 0.06 0.04 0.04 0.04 0.05 0.07 0.08 0.08 0.08 0.06 0.06 0.05 0.05 0.05 0.05 0.05 0.05 0.05 0.05 0.05 0.05 0.06 0.06 0.06 0.06 0.05 0.05 0.04 0.04 0.04 0.03 0.03 0.03 0.04 0.05 0.07
0.07 0.09 0.09 0.07 0.05 0.04 0.04 0.05 0.06 0.06 0.06 0.05 0.04 0.04 0.04 0.04 0.04 0.04 0.04 0.04 0.04 0.04 0.04 0.04 0.05 0.05 0.05 0.04 0.04 0.05 0.05 0.05 0.05 0.05 0.05 0.05 0.05 0.05
0.08 0.09 0.09 0.08 0.06 0.05 0.04 0.05 0.05 0.06 0.06 0.05 0.04 0.04 0.03 0.03 0.04 0.04 0.03 0.03 0.03 0.03 0.03 0.03 0.03 0.03 0.03 0.03 0.03 0.03 0.04 0.04 0.04 0.05 0.05 0.06 0.06 0.05
0.06 0.05 0.06 0.06 0.05 0.04 0.05 0.05 0.04 0.04 0.04 0.04 0.04 0.03 0.03 0.03 0.03 0.04 0.03 0.03 0.02 0.02 0.02 0.03 0.03 0.02 0.02 0.03 0.02 0.02 0.03 0.03 0.04 0.05 0.05 0.06 0.06 0.05
0.04 0.05 0.05 0.05 0.05 0.04 0.05 0.04 0.04 0.03 0.03 0.03 0.03 0.03 0.03 0.03 0.03 0.03 0.03 0.02 0.02 0.02 0.02 0.03 0.03 0.03 0.03 0.02 0.02 0.03 0.03 0.04 0.04 0.04 0.04 0.04 0.05 0.05
0.04 0.04 0.03 0.03 0.05 0.05 0.05 0.04 0.03 0.02 0.02 0.02 0.02 0.02 0.03 0.03 0.02 0.02 0.02 0.02 0.02 0.02 0.02 0.02 0.03 0.03 0.03 0.03 0.02 0.02 0.02 0.03 0.04 0.04 0.04 0.04 0.05 0.05
0.04 0.03 0.03 0.03 0.03 0.04 0.05 0.04 0.03 0.03 0.02 0.02 0.02 0.02 0.02 0.02 0.02 0.02 0.02 0.02 0.02 0.02 0.03 0.03 0.03 0.03 0.03 0.03 0.02 0.02 0.02 0.02 0.03 0.04 0.04 0.05 0.06 0.06
0.04 0.03 0.03 0.03 0.03 0.03 0.04 0.03 0.02 0.02 0.02 0.01 0.01 0.01 0.01 0.01 0.01 0.01 0.02 0.02 0.02 0.02 0.03 0.03 0.03 0.03 0.03 0.04 0.03 0.02 0.02 0.03 0.04 0.04 0.05 0.05 0.06 0.07
0.04 0.04 0.03 0.03 0.03 0.04 0.04 0.04 0.03 0.02 0.02 0.02 0.01 0.01 0.01 0.01 0.01 0.01 0.01 0.02 0.02 0.02 0.02 0.03 0.03 0.03 0.03 0.04 0.04 0.04 0.03 0.04 0.05 0.06 0.06 0.07 0.07 0.08
0.03 0.03 0.04 0.04 0.03 0.03 0.03 0.03 0.03 0.02 0.02 0.02 0.01 0.01 0.01 0.01 0.01 0.01 0.01 0.02 0.02 0.02 0.01 0.02 0.02 0.03 0.03 0.03 0.02 0.02 0.03 0.04 0.06 0.08 0.08 0.09 0.10 0.10
0.04 0.04 0.04 0.05 0.04 0.04 0.03 0.02 0.02 0.02 0.02 0.02 0.01 0.01 0.01 0.01 0.01 0.01 0.01 0.01 0.02 0.02 0.01 0.02 0.03 0.03 0.03 0.03 0.02 0.02 0.02 0.04 0.07 0.08 0.09 0.10 0.11 0.11
0.04 0.04 0.05 0.05 0.05 0.04 0.04 0.04 0.03 0.03 0.03 0.02 0.02 0.01 0.01 0.01 0.01 0.01 0.01 0.01 0.01 0.01 0.01 0.02 0.04 0.04 0.04 0.04 0.03 0.02 0.03 0.04 0.06 0.07 0.07 0.10 0.12 0.12
0.04 0.05 0.06 0.07 0.06 0.05 0.04 0.04 0.03 0.03 0.03 0.02 0.02 0.01 0.01 0.01 0.01 0.01 0.01 0.01 0.01 0.01 0.01 0.02 0.03 0.04 0.05 0.05 0.04 0.04 0.04 0.04 0.06 0.06 0.06 0.08 0.11 0.14
0.04 0.04 0.05 0.06 0.06 0.06 0.05 0.04 0.03 0.03 0.03 0.03 0.02 0.02 0.01 0.01 0.01 0.01 0.01 0.01 0.01 0.01 0.01 0.01 0.02 0.03 0.05 0.05 0.05 0.06 0.06 0.07 0.07 0.07 0.07 0.07 0.08 0.10
0.03 0.03 0.03 0.03 0.03 0.04 0.05 0.05 0.04 0.03 0.03 0.03 0.03 0.02 0.02 0.01 0.01 0.01 0.01 0.02 0.02 0.02 0.01 0.01 0.02 0.02 0.03 0.05 0.06 0.06 0.05 0.06 0.07 0.07 0.08 0.07 0.08 0.08
0.03 0.03 0.03 0.02 0.02 0.03 0.03 0.04 0.05 0.04 0.03 0.03 0.03 0.03 0.02 0.02 0.02 0.02 0.02 0.02 0.02 0.02 0.02 0.02 0.02 0.03 0.04 0.05 0.05 0.05 0.05 0.05 0.05 0.06 0.07 0.07 0.08 0.08
0.02 0.02 0.03 0.02 0.02 0.02 0.03 0.04 0.05 0.04 0.03 0.03 0.03 0.03 0.03 0.03 0.03 0.02 0.02 0.02 0.02 0.02 0.02 0.02 0.03 0.05 0.06 0.05 0.04 0.04 0.05 0.06 0.06 0.06 0.07 0.06 0.06 0.07
0.01 0.02 0.02 0.02 0.02 0.02 0.02 0.03 0.03 0.04 0.04 0.03 0.03 0.03 0.03 0.04 0.04 0.03 0.03 0.03 0.02 0.02 0.02 0.02 0.03 0.05 0.07 0.07 0.06 0.04 0.04 0.06 0.07 0.07 0.06 0.06 0.06 0.06
0.00 0.01 0.01 0.01 0.01 0.01 0.02 0.02 0.02 0.02 0.02 0.03 0.03 0.03 0.03 0.03 0.03 0.03 0.03 0.02 0.02 0.02 0.02 0.02 0.02 0.02 0.03 0.05 0.05 0.03 0.02 0.03 0.05 0.06 0.05 0.06 0.07 0.08
0.00 0.00 0.00 0.01 0.01 0.01 0.01 0.01 0.02 0.02 0.02 0.02 0.02 0.02 0.02 0.03 0.03 0.03 0.02 0.02 0.02 0.02 0.02 0.01 0.01 0.02 0.03 0.05 0.05 0.03 0.03 0.03 0.04 0.07 0.07 0.07 0.06 0.07
0.00 0.00 0.00 0.00 0.01 0.01 0.01 0.01 0.01 0.01 0.01 0.02 0.02 0.03 0.03 0.03 0.03 0.03 0.03 0.02 0.02 0.02 0.02 0.02 0.02 0.02 0.03 0.03 0.04 0.04 0.04 0.04 0.05 0.07 0.10 0.09 0.06 0.04
MSLP
1010.55 1010.56 1010.60 1010.62 1010.58 1010.45 1010.21 1009.88 1009.50 1009.10 1008.72 1008.41 1008.20 1008.10 1008.12 1008.25 1008.46 1008.72 1009.01 1009.30 1009.57 1009.81 1010.01 1010.17 1010.30 1010.41 1010.50 1010.59 1010.68 1010.79 1010.91 1011.06 1011.23 1011.44 1011.68 1011.94 1012.22 1012.50
1009.87 1009.92 1010.00 1010.06 1010.04 1009.92 1009.69 1009.36 1008.96 1008.54 1008.14 1007.80 1007.56 1007.43 1007.41 1007.49 1007.65 1007.87 1008.11 1008.35 1008.58 1008.79 1008.97 1009.14 1009.28 1009.41 1009.54 1009.66 1009.79 1009.92 1010.07 1010.22 1010.39 1010.59 1010.81 1011.05 1011.32 1011.60
1009.41 1009.48 1009.58 1009.65 1009.65 1009.53 1009.31 1008.98 1008.58 1008.16 1007.75 1007.40 1007.13 1006.97 1006.91 1006.93 1007.02 1007.15 1007.30 1007.45 1007.60 1007.73 1007.86 1007.98 1008.11 1008.26 1008.41 1008.57 1008.74 1008.92 1009.10 1009.29 1009.48 1009.68 1009.90 1010.14 1010.40 1010.68
1009.26 1009.34 1009.44 1009.51 1009.51 1009.39 1009.17 1008.85 1008.46 1008.05 1007.65 1007.30 1007.02 1006.83 1006.72 1006.67 1006.66 1006.68 1006.70 1006.71 1006.72 1006.73 1006.76 1006.80 1006.89 1007.00 1007.16 1007.34 1007.55 1007.77 1008.00 1008.22 1008.45 1008.67 1008.91 1009.16 1009.43 1009.72
1009.51 1009.58 1009.66 1009.72 1009.70 1009.57 1009.35 1009.03 1008.66 1008.27 1007.89 1007.56 1007.28 1007.06 1006.90 1006.77 1006.65 1006.53 1006.39 1006.24 1006.08 1005.93 1005.81 1005.73 1005.72 1005.77 1005.88 1006.06 1006.27 1006.52 1006.77 1007.03 1007.29 1007.55 1007.81 1008.08 1008.37 1008.68
1010.13 1010.17 1010.23 1010.25 1010.21 1010.06 1009.83 1009.52 1009.17 1008.81 1008.46 1008.14 1007.88 1007.65 1007.44 1007.24 1007.01 1006.76 1006.46 1006.13 1005.78 1005.44 1005.14 1004.90 1004.75 1004.69 1004.72 1004.84 1005.02 1005.25 1005.50 1005.77 1006.05 1006.32 1006.60 1006.90 1007.21 1007.55
1011.02 1011.04 1011.06 1011.04 1010.96 1010.78 1010.54 1010.24 1009.91 1009.57 1009.26 1008.98 1008.73 1008.51 1008.28 1008.02 1007.71 1007.33 1006.89 1006.40 1005.87 1005.34 1004.86 1004.44 1004.12 1003.92 1003.82 1003.83 1003.93 1004.10 1004.31 1004.54 1004.80 1005.07 1005.35 1005.65 1005.98 1006.34
1012.05 1012.04 1012.01 1011.95 1011.82 1011.62 1011.36 1011.06 1010.75 1010.45 1010.17 1009.93 1009.72 1009.51 1009.28 1008.99 1008.63 1008.18 1007.63 1007.01 1006.34 1005.65 1005.00 1004.42 1003.93 1003.56 1003.31 1003.18 1003.15 1003.20 1003.31 1003.47 1003.66 1003.88 1004.13 1004.41 1004.73 1005.09
1013.05 1013.01 1012.95 1012.83 1012.66 1012.43 1012.15 1011.86 1011.56 1011.29 1011.06 1010.87 1010.69 1010.52 1010.31 1010.02 1009.65 1009.16 1008.57 1007.87 1007.11 1006.32 1005.54 1004.82 1004.18 1003.65 1003.24 1002.95 1002.76 1002.67 1002.64 1002.68 1002.76 1002.89 1003.06 1003.28 1003.55 1003.88
1013.92 1013.84 1013.74 1013.59 1013.39 1013.13 1012.84 1012.54 1012.27 1012.02 1011.83 1011.67 1011.54 1011.40 1011.23 1010.97 1010.62 1010.14 1009.55 1008.84 1008.05 1007.22 1006.38 1005.57 1004.82 1004.17 1003.61 1003.16 1002.82 1002.56 1002.37 1002.25 1002.20 1002.19 1002.25 1002.37 1002.56 1002.83
1014.57 1014.48 1014.35 1014.17 1013.94 1013.67 1013.38 1013.09 1012.82 1012.60 1012.43 1012.30 1012.20 1012.10 1011.96 1011.74 1011.43 1010.99 1010.44 1009.77 1009.01 1008.19 1007.34 1006.51 1005.71 1004.98 1004.32 1003.75 1003.26 1002.85 1002.50 1002.23 1002.01 1001.86 1001.78 1001.77 1001.85 1002.01
1015.04 1014.94 1014.79 1014.60 1014.36 1014.08 1013.79 1013.51 1013.25 1013.05 1012.89 1012.77 1012.69 1012.60 1012.48 1012.29 1012.01 1011.63 1011.13 1010.53 1009.83 1009.07 1008.28 1007.47 1006.68 1005.92 1005.21 1004.56 1003.97 1003.44 1002.96 1002.54 1002.18 1001.88 1001.65 1001.51 1001.45 1001.49
1015.37 1015.26 1015.12 1014.92 1014.69 1014.42 1014.14 1013.87 1013.63 1013.42 1013.26 1013.14 1013.04 1012.94 1012.82 1012.64 1012.38 1012.04 1011.59 1011.06 1010.44 1009.77 1009.04 1008.30 1007.56 1006.83 1006.12 1005.44 1004.80 1004.19 1003.62 1003.09 1002.61 1002.18 1001.83 1001.55 1001.36 1001.26
1015.62 1015.52 1015.38 1015.20 1014.98 1014.74 1014.48 1014.22 1013.99 1013.78 1013.61 1013.46 1013.33 1013.20 1013.04 1012.84 1012.57 1012.24 1011.83 1011.35 1010.81 1010.21 1009.58 1008.92 1008.25 1007.58 1006.91 1006.24 1005.59 1004.95 1004.33 1003.73 1003.17 1002.65 1002.20 1001.80 1001.50 1001.27
1015.82 1015.73 1015.61 1015.46 1015.27 1015.05 1014.82 1014.59 1014.37 1014.16 1013.97 1013.79 1013.61 1013.43 1013.21 1012.96 1012.66 1012.31 1011.91 1011.46 1010.96 1010.43 1009.87 1009.29 1008.70 1008.09 1007.47 1006.84 1006.21 1005.57 1004.94 1004.32 1003.72 1003.15 1002.62 1002.15 1001.75 1001.43
1015.99 1015.91 1015.81 1015.68 1015.52 1015.34 1015.15 1014.95 1014.75 1014.55 1014.34 1014.13 1013.91 1013.66 1013.38 1013.07 1012.72 1012.33 1011.91 1011.45 1010.98 1010.48 1009.97 1009.44 1008.90 1008.35 1007.78 1007.20 1006.60 1005.98 1005.36 1004.74 1004.12 1003.53 1002.97 1002.45 1002.00 1001.60
1016.07 1016.00 1015.91 1015.80 1015.68 1015.54 1015.39 1015.23 1015.06 1014.88 1014.68 1014.45 1014.20 1013.91 1013.57 1013.20 1012.80 1012.36 1011.90 1011.43 1010.94 1010.44 1009.95 1009.44 1008.93 1008.41 1007.87 1007.31 1006.72 1006.13 1005.52 1004.90 1004.29 1003.70 1003.13 1002.60 1002.11 1001.69
1016.00 1015.93 1015.86 1015.77 1015.68 1015.58 1015.47 1015.36 1015.23 1015.08 1014.91 1014.69 1014.43 1014.12 1013.76 1013.36 1012.91 1012.44 1011.94 1011.43 1010.92 1010.40 1009.89 1009.37 1008.85 1008.31 1007.76 1007.20 1006.61 1006.02 1005.41 1004.80 1004.19 1003.61 1003.04 1002.51 1002.03 1001.59
1015.76 1015.69 1015.61 1015.54 1015.47 1015.41 1015.35 1015.28 1015.21 1015.11 1014.97 1014.79 1014.55 1014.26 1013.90 1013.49 1013.04 1012.55 1012.03 1011.49 1010.94 1010.39 1009.84 1009.28 1008.71 1008.13 1007.55 1006.94 1006.33 1005.70 1005.08 1004.46 1003.85 1003.27 1002.71 1002.19 1001.71 1001.28
1015.35 1015.27 1015.19 1015.12 1015.07 1015.04 1015.02 1015.00 1014.98 1014.93 1014.85 1014.72 1014.54 1014.28 1013.96 1013.58 1013.13 1012.65 1012.12 1011.56 1010.99 1010.40 1009.79 1009.17 1008.54 1007.90 1007.25 1006.58 1005.91 1005.24 1004.58 1003.93 1003.32 1002.73 1002.18 1001.67 1001.20 1000.78
1014.84 1014.74 1014.66 1014.60 1014.56 1014.54 1014.55 1014.57 1014.60 1014.60 1014.58 1014.50 1014.37 1014.17 1013.90 1013.55 1013.14 1012.67 1012.15 1011.59 1010.99 1010.36 1009.70 1009.02 1008.32 1007.61 1006.88 1006.14 1005.40 1004.68 1003.97 1003.29 1002.66 1002.06 1001.51 1001.00 1000.55 1000.14
1014.33 1014.22 1014.13 1014.07 1014.03 1014.03 1014.05 1014.09 1014.14 1014.18 1014.20 1014.16 1014.08 1013.92 1013.70 1013.39 1013.01 1012.57 1012.06 1011.49 1010.87 1010.20 1009.50 1008.76 1008.00 1007.21 1006.41 1005.61 1004.82 1004.04 1003.30 1002.59 1001.93 1001.32 1000.77 1000.26 999.81 999.40
1013.92 1013.82 1013.73 1013.66 1013.61 1013.60 1013.62 1013.66 1013.72 1013.76 1013.78 1013.77 1013.70 1013.57 1013.36 1013.08 1012.72 1012.28 1011.77 1011.19 1010.55 1009.86 1009.11 1008.33 1007.51 1006.67 1005.82 1004.98 1004.15 1003.34 1002.57 1001.85 1001.18 1000.57 1000.01 999.51 999.04 998.62
Thickness
5573 5576 5578 5581 5583 5585 5586 5588 5588 5592 5596 5596 5595 5595 5593 5592 5591 5591 5592 5593 5593 5593 5594 5594 5594 5594 5594 5595 5594 5593 5592 5591 5590 5589 5587 5586 5585 5584
5562 5565 5567 5570 5572 5574 5575 5577 5578 5580 5584 5587 5585 5585 5583 5581 5580 5581 5582 5582 5583 5584 5585 5586 5586 5585 5585 5585 5585 5585 5584 5583 5582 5580 5579 5579 5578 5577
5551 5553 5556 5558 5561 5563 5564 5566 5567 5568 5571 5574 5573 5572 5571 5572 5571 5571 5571 5572 5574 5575 5576 5576 5577 5576 5576 5576 5576 5575 5575 5574 5573 5572 5571 5570 5570 5570
5541 5543 5545 5547 5549 5551 5553 5555 5556 5557 5559 5560 5560 5560 5560 5560 5560 5560 5561 5562 5564 5566 5566 5566 5567 5567 5567 5567 5566 5566 5565 5564 5563 5563 5562 5562 5562 5561
5530 5532 5534 5536 5538 5540 5541 5543 5544 5545 5546 5547 5549 5548 5548 5548 5548 5549 5549 5550 5552 5554 5555 5556 5557 5557 5558 5558 5557 5556 5556 5555 5554 5553 5552 5553 5553 5553
5520 5522 5523 5525 5527 5528 5530 5531 5531 5533 5534 5535 5536 5535 5536 5536 5536 5536 5537 5538 5540 5542 5544 5546 5547 5547 5548 5549 5548 5547 5546 5545 5545 5544 5544 5545 5545 5545
5510 5511 5512 5513 5514 5515 5517 5518 5519 5520 5521 5522 5522 5523 5523 5522 5522 5523 5523 5525 5527 5530 5532 5534 5535 5537 5538 5539 5538 5538 5537 5536 5535 5535 5536 5536 5537 5537
5499 5500 5501 5501 5501 5502 5503 5503 5504 5506 5508 5508 5509 5510 5511 5509 5508 5508 5509 5511 5516 5518 5517 5520 5521 5523 5526 5527 5528 5527 5526 5526 5526 5526 5526 5527 5528 5529
5488 5489 5490 5490 5489 5490 5490 5490 5491 5491 5492 5493 5494 5496 5496 5495 5494 5494 5494 5496 5500 5501 5500 5507 5509 5511 5512 5513 5514 5515 5515 5515 5515 5515 5516 5517 5518 5520
5476 5478 5478 5478 5478 5478 5478 5479 5479 5478 5478 5478 5480 5481 5480 5479 5479 5479 5480 5480 5483 5485 5485 5491 5496 5497 5499 5500 5502 5502 5502 5503 5503 5504 5505 5507 5508 5510
5464 5464 5465 5466 5466 5465 5465 5466 5466 5464 5463 5463 5463 5464 5464 5463 5463 5463 5464 5466 5470 5473 5472 5474 5480 5481 5485 5488 5489 5489 5489 5490 5491 5492 5494 5495 5497 5498
5453 5453 5452 5453 5453 5453 5452 5453 5453 5452 5450 5450 5450 5450 5450 5449 5449 5449 5449 5450 5452 5456 5459 5457 5460 5462 5469 5476 5476 5476 5476 5478 5479 5480 5482 5483 5483 5483
5443 5443 5442 5441 5441 5440 5440 5440 5439 5438 5437 5437 5437 5437 5437 5436 5436 5435 5434 5434 5435 5439 5441 5439 5442 5443 5447 5456 5463 5462 5463 5465 5467 5469 5470 5471 5471 5470
5434 5434 5433 5431 5430 5429 5428 5427 5425 5424 5424 5424 5424 5424 5423 5422 5422 5421 5420 5420 5421 5423 5424 5422 5424 5427 5430 5436 5445 5451 5451 5452 5454 5456 5458 5459 5461 5462
5424 5423 5422 5420 5419 5418 5416 5414 5413 5412 5411 5411 5411 5410 5408 5408 5407 5407 5407 5407 5408 5409 5409 5410 5411 5413 5415 5421 5428 5434 5437 5441 5442 5444 5446 5448 5450 5452
5414 5413 5411 5409 5407 5406 5404 5403 5401 5400 5399 5398 5397 5396 5395 5394 5394 5394 5394 5395 5396 5398 5397 5398 5399 5401 5404 5409 5413 5419 5423 5426 5431 5432 5435 5438 5440 5443
5404 5403 5401 5400 5399 5397 5394 5391 5390 5389 5387 5385 5384 5383 5382 5382 5382 5381 5380 5381 5383 5385 5387 5387 5388 5390 5393 5396 5401 5407 5411 5415 5418 5421 5424 5429 5433 5437
5394 5393 5391 5389 5387 5385 5383 5381 5378 5376 5375 5373 5372 5371 5370 5370 5370 5369 5368 5368 5370 5372 5374 5375 5377 5380 5384 5388 5390 5395 5399 5403 5407 5411 5414 5419 5426 5430
5383 5382 5379 5376 5374 5372 5370 5368 5366 5364 5362 5361 5360 5359 5358 5358 5358 5358 5357 5358 5359 5360 5361 5362 5363 5366 5371 5378 5384 5382 5385 5390 5395 5400 5406 5410 5417 5423
5373 5370 5367 5365 5363 5360 5358 5356 5354 5352 5351 5350 5349 5348 5347 5346 5346 5346 5346 5346 5347 5349 5350 5351 5352 5353 5356 5363 5369 5373 5374 5378 5384 5390 5397 5402 5407 5413
5362 5359 5356 5353 5351 5348 5346 5344 5342 5341 5340 5338 5337 5336 5335 5335 5335 5335 5335 5336 5336 5338 5340 5342 5342 5342 5344 5349 5357 5366 5369 5371 5374 5379 5386 5392 5398 5404
5352 5349 5346 5342 5339 5337 5334 5332 5331 5330 5328 5327 5326 5325 5324 5323 5323 5324 5324 5325 5326 5328 5329 5331 5333 5334 5337 5342 5350 5356 5360 5365 5368 5372 5377 5382 5387 5395
5341 5338 5335 5332 5328 5326 5323 5321 5320 5318 5317 5316 5315 5314 5313 5313 5313 5314 5314 5315 5316 5318 5320 5322 5325 5327 5330 5334 5340 5346 5351 5357 5362 5367 5373 5377 5381 5386